TimeMDT,TemperatureF,Dew PointF,Humidity,Sea Level PressureIn,VisibilityMPH,Wind Direction,Wind SpeedMPH,Gust SpeedMPH,PrecipitationIn,Events,Conditions,WindDirDegrees,DateUTC
12:10 AM,51.8,48.2,88,30.27,10.0,Calm,Calm,-,N/A,,Clear,0,2013-09-06 06:10:00
12:30 AM,51.8,46.4,82,30.27,10.0,SE,4.6,-,N/A,,Clear,140,2013-09-06 06:30:00
12:50 AM,53.6,48.2,82,30.27,10.0,Calm,Calm,-,N/A,,Clear,0,2013-09-06 06:50:00
1:10 AM,50.0,46.4,87,30.27,10.0,Calm,Calm,-,N/A,,Clear,0,2013-09-06 07:10:00
1:30 AM,48.2,42.8,82,30.28,10.0,Calm,Calm,-,N/A,,Clear,0,2013-09-06 07:30:00
1:50 AM,48.2,42.8,82,30.28,10.0,Calm,Calm,-,N/A,,Partly Cloudy,0,2013-09-06 07:50:00
2:10 AM,46.4,41.0,81,30.28,10.0,Calm,Calm,-,N/A,,Scattered Clouds,0,2013-09-06 08:10:00
2:30 AM,46.4,41.0,81,30.28,10.0,Calm,Calm,-,N/A,,Mostly Cloudy,0,2013-09-06 08:30:00
2:50 AM,46.4,41.0,81,30.27,10.0,Calm,Calm,-,N/A,,Mostly Cloudy,0,2013-09-06 08:50:00
3:10 AM,44.6,39.2,81,30.27,10.0,Calm,Calm,-,N/A,,Mostly Cloudy,0,2013-09-06 09:10:00
3:30 AM,44.6,39.2,81,30.27,10.0,Calm,Calm,-,N/A,,Partly Cloudy,0,2013-09-06 09:30:00
3:50 AM,44.6,39.2,81,30.27,10.0,Calm,Calm,-,N/A,,Scattered Clouds,0,2013-09-06 09:50:00
4:10 AM,44.6,39.2,81,30.27,10.0,Calm,Calm,-,N/A,,Partly Cloudy,0,2013-09-06 10:10:00
4:30 AM,42.8,37.4,81,30.28,10.0,Calm,Calm,-,N/A,,Clear,0,2013-09-06 10:30:00
4:50 AM,41.0,37.4,87,30.28,10.0,Calm,Calm,-,N/A,,Clear,0,2013-09-06 10:50:00
5:10 AM,41.0,37.4,87,30.28,10.0,Calm,Calm,-,N/A,,Clear,0,2013-09-06 11:10:00
5:30 AM,41.0,35.6,81,30.28,10.0,Calm,Calm,-,N/A,,Clear,0,2013-09-06 11:30:00
5:50 AM,39.2,35.6,87,30.28,10.0,Calm,Calm,-,N/A,,Clear,0,2013-09-06 11:50:00
6:10 AM,39.2,35.6,87,30.28,10.0,Calm,Calm,-,N/A,,Clear,0,2013-09-06 12:10:00
6:30 AM,39.2,35.6,87,30.29,10.0,Calm,Calm,-,N/A,,Clear,0,2013-09-06 12:30:00
6:50 AM,39.2,35.6,87,30.29,10.0,Calm,Calm,-,N/A,,Clear,0,2013-09-06 12:50:00
7:10 AM,39.2,35.6,87,30.30,10.0,Calm,Calm,-,N/A,,Clear,0,2013-09-06 13:10:00
7:30 AM,39.2,35.6,87,30.30,10.0,Calm,Calm,-,N/A,,Clear,0,2013-09-06 13:30:00
7:50 AM,42.8,37.4,81,30.30,10.0,Calm,Calm,-,N/A,,Clear,0,2013-09-06 13:50:00
8:10 AM,46.4,41.0,81,30.30,10.0,Calm,Calm,-,N/A,,Clear,0,2013-09-06 14:10:00
8:30 AM,50.0,44.6,82,30.30,10.0,Calm,Calm,-,N/A,,Clear,0,2013-09-06 14:30:00
8:50 AM,53.6,48.2,82,30.31,10.0,Calm,Calm,-,N/A,,Clear,0,2013-09-06 14:50:00
9:10 AM,55.4,50.0,82,30.31,10.0,Calm,Calm,-,N/A,,Clear,0,2013-09-06 15:10:00
9:30 AM,57.2,53.6,88,30.30,10.0,North,3.5,-,N/A,,Clear,360,2013-09-06 15:30:00
9:50 AM,60.8,55.4,82,30.31,10.0,Calm,Calm,-,N/A,,Clear,0,2013-09-06 15:50:00
10:10 AM,62.6,57.2,82,30.31,10.0,East,3.5,-,N/A,,Clear,90,2013-09-06 16:10:00
10:30 AM,66.2,60.8,83,30.30,10.0,Calm,Calm,-,N/A,,Clear,0,2013-09-06 16:30:00
10:50 AM,71.6,66.2,83,30.29,10.0,SW,8.1,-,N/A,,Clear,220,2013-09-06 16:50:00
11:10 AM,75.2,69.8,83,30.28,10.0,South,13.8,19.6,N/A,,Clear,190,2013-09-06 17:10:00
11:30 AM,75.2,71.6,89,30.28,10.0,SSW,11.5,16.1,N/A,,Clear,200,2013-09-06 17:30:00
11:50 AM,77.0,71.6,83,30.28,10.0,South,12.7,20.7,N/A,,Clear,190,2013-09-06 17:50:00
12:10 PM,77.0,73.4,89,30.28,10.0,SSW,10.4,20.7,N/A,,Clear,200,2013-09-06 18:10:00
12:30 PM,77.0,71.6,83,30.28,10.0,SW,11.5,-,N/A,,Clear,220,2013-09-06 18:30:00
12:50 PM,77.0,71.6,83,30.27,10.0,SW,8.1,17.3,N/A,,Scattered Clouds,230,2013-09-06 18:50:00
1:10 PM,75.2,71.6,89,30.26,10.0,SSW,11.5,17.3,N/A,,Mostly Cloudy,210,2013-09-06 19:10:00
1:30 PM,77.0,73.4,89,30.25,10.0,SW,10.4,20.7,N/A,,Mostly Cloudy,220,2013-09-06 19:30:00
1:50 PM,78.8,73.4,83,30.24,10.0,South,11.5,17.3,N/A,,Scattered Clouds,180,2013-09-06 19:50:00
2:10 PM,78.8,73.4,83,30.24,10.0,SW,15.0,28.8,N/A,,Scattered Clouds,230,2013-09-06 20:10:00
2:30 PM,78.8,73.4,83,30.24,10.0,WSW,11.5,24.2,N/A,,Scattered Clouds,240,2013-09-06 20:30:00
2:50 PM,80.6,75.2,84,30.23,10.0,SSW,19.6,25.3,N/A,,Scattered Clouds,200,2013-09-06 20:50:00
3:10 PM,80.6,75.2,84,30.22,10.0,SSW,17.3,32.2,N/A,,Partly Cloudy,210,2013-09-06 21:10:00
3:30 PM,80.6,75.2,84,30.22,10.0,SW,12.7,27.6,N/A,,Clear,220,2013-09-06 21:30:00
3:50 PM,78.8,75.2,89,30.22,10.0,South,15.0,20.7,N/A,,Scattered Clouds,180,2013-09-06 21:50:00
4:10 PM,75.2,71.6,89,30.22,10.0,SSW,13.8,21.9,N/A,,Scattered Clouds,200,2013-09-06 22:10:00
4:30 PM,66.2,62.6,88,30.24,5.0,SSE,11.5,24.2,0.01,Rain,Light Rain,160,2013-09-06 22:30:00
4:50 PM,64.4,59.0,83,30.24,10.0,SSE,9.2,17.3,0.01,,Mostly Cloudy,150,2013-09-06 22:50:00
5:10 PM,62.6,57.2,82,30.25,10.0,SSE,5.8,-,N/A,,Mostly Cloudy,160,2013-09-06 23:10:00
5:30 PM,62.6,59.0,88,30.25,10.0,South,10.4,-,N/A,,Mostly Cloudy,170,2013-09-06 23:30:00
5:50 PM,62.6,57.2,82,30.26,10.0,SSW,5.8,17.3,N/A,,Mostly Cloudy,200,2013-09-06 23:50:00
6:10 PM,60.8,55.4,82,30.26,10.0,South,11.5,19.6,N/A,,Partly Cloudy,180,2013-09-07 00:10:00
6:30 PM,59.0,55.4,88,30.27,10.0,SE,5.8,-,N/A,,Clear,140,2013-09-07 00:30:00
6:50 PM,59.0,55.4,88,30.26,10.0,Calm,Calm,-,N/A,,Clear,0,2013-09-07 00:50:00
7:10 PM,60.8,55.4,82,30.25,10.0,ENE,4.6,-,N/A,,Clear,60,2013-09-07 01:10:00
7:30 PM,59.0,55.4,88,30.25,10.0,NE,4.6,-,N/A,,Clear,50,2013-09-07 01:30:00
7:50 PM,59.0,53.6,82,30.25,10.0,Calm,Calm,-,N/A,,Clear,0,2013-09-07 01:50:00
8:10 PM,57.2,53.6,88,30.25,10.0,Calm,Calm,-,N/A,,Clear,0,2013-09-07 02:10:00
8:30 PM,55.4,51.8,88,30.26,10.0,Calm,Calm,-,N/A,,Clear,0,2013-09-07 02:30:00
8:50 PM,57.2,53.6,88,30.28,10.0,East,6.9,-,N/A,,Clear,90,2013-09-07 02:50:00
9:10 PM,57.2,53.6,88,30.28,10.0,ESE,5.8,-,N/A,,Clear,110,2013-09-07 03:10:00
9:30 PM,57.2,51.8,82,30.28,10.0,ESE,4.6,-,N/A,,Clear,110,2013-09-07 03:30:00
9:50 PM,53.6,48.2,82,30.28,10.0,Calm,Calm,-,N/A,,Clear,0,2013-09-07 03:50:00
10:10 PM,50.0,46.4,87,30.29,10.0,Calm,Calm,-,N/A,,Clear,0,2013-09-07 04:10:00
10:30 PM,50.0,46.4,87,30.29,10.0,Calm,Calm,-,N/A,,Clear,0,2013-09-07 04:30:00
10:50 PM,50.0,44.6,82,30.29,10.0,WSW,4.6,-,N/A,,Clear,240,2013-09-07 04:50:00
11:10 PM,50.0,46.4,87,30.29,10.0,Calm,Calm,-,N/A,,Partly Cloudy,0,2013-09-07 05:10:00
11:30 PM,51.8,46.4,82,30.29,10.0,South,3.5,-,N/A,,Mostly Cloudy,190,2013-09-07 05:30:00
11:50 PM,53.6,48.2,82,30.29,10.0,Calm,Calm,-,N/A,,Mostly Cloudy,0,2013-09-07 05:50:00